Location: The Saddle
(36.8333°N, 80.3417°W)
Time: 22:27:38
(UTC-04:00)

SR - Visible Passes

Search period start: 24 May 2024 00:00
Search period end: 03 June 2024 00:00
Orbit: 579 x 859 km, 66.7° (Epoch: 24 May)

Date Brightness Start Highest point End Pass type
(mag) Time Alt. Az. Time Alt. Az. Time Alt. Az.
24 May ? 03:35:00 10° NNW 03:39:13 59° ENE 03:41:10 29° SE visible
25 May ? 02:43:16 10° N 02:46:48 24° NE 02:48:33 19° E visible
25 May ? 04:25:01 10° NW 04:27:39 24° W 04:27:39 24° W visible
26 May ? 01:52:45 10° NNE 01:54:07 11° NE 01:55:30 10° ENE visible
26 May ? 03:32:14 10° NNW 03:35:30 50° NW 03:35:30 50° NW visible
27 May ? 02:40:06 10° NNW 02:43:36 41° NE 02:43:36 41° NE visible
28 May ? 01:48:34 10° N 01:51:42 19° NE 01:51:52 19° NE visible
28 May ? 03:29:45 10° NW 03:31:02 18° WNW 03:31:02 18° WNW visible
29 May ? 02:37:11 10° NNW 02:39:26 30° NNW 02:39:26 30° NNW visible
30 May ? 01:45:12 10° N 01:47:56 29° NNE 01:47:56 29° NNE visible
31 May ? 00:53:57 10° NNE 00:56:29 15° NE 00:56:29 15° NE visible
31 May ? 02:34:32 10° NW 02:35:40 17° NW 02:35:40 17° NW visible
01 Jun ? 01:42:10 10° NNW 01:44:18 28° NNW 01:44:18 28° NNW visible
02 Jun ? 00:50:21 10° N 00:53:00 24° NNE 00:53:00 24° NNE visible
